Flag for Belgium Weather past 2 weeks in Namur, Belgium

Now
48 °F

Passing clouds.


Feels Like: 43 °F
Forecast: 45 / 67 °F
Wind: 12 mph from Southwest

Location: Charleroi / Gosselies

Current Time: May 30, 2015 at 3:04:52 AM

Latest Report: May 30, 2015 at 2:20 AM


Visibility: N/A

Pressure: 29.86 "Hg

Humidity: 94%

Dew point: 46 °F

Location of NamurLocation

Historic Weather in Namur — Graph

°F

Namur temperature yesterday

Maximum temperature yesterday: 59 °F (at 1:50 PM)
Minimum temperature yesterday: 45 °F (at 3:50 AM)
Average temperature yesterday: 52 °F

Past Weeks' High & Low Weather Summary

 TemperatureHumidityPressure
High66 °F (May 22, 4:20 PM)100% (May 15, 1:20 AM)30.36 "Hg (May 15, 1:20 AM)
Low41 °F (May 20, 4:20 AM)34% (May 24, 7:20 PM)29.71 "Hg (May 18, 5:50 PM)
Average53 °F72%30.09 "Hg
* Reported May 15 1:20 AM — May 30 1:50 AM, Namur, Weather by CustomWeather, © 2015

Note: Actual official high and low records may vary slightly from our data, if they occured in-between our weather recording intervals... More about our weather records

Advertising

Namur weather history for previous 24 hours

 ConditionsComfort  
Time TempWeatherWind HumidityBarometerVisibility
1:50 AM
Sat, May 30
48 °FPartly cloudy.13 mph94%29.86 "HgN/A
1:20 AM50 °FPartly cloudy.12 mph88%29.86 "HgN/A
12:50 AM48 °FPassing clouds.10 mph94%29.83 "HgN/A
12:20 AM50 °FPartly cloudy.14 mph88%29.83 "HgN/A
11:50 PM
Fri, May 29
50 °FOvercast.14 mph88%29.83 "HgN/A
11:20 PM50 °FPassing clouds.15 mph88%29.83 "HgN/A
10:50 PM50 °FLight rain. Partly cloudy.15 mph88%29.83 "HgN/A
10:20 PM50 °FLight rain. Partly sunny.15 mph94%29.83 "Hg4 mi
9:50 PM50 °FLight rain. Partly sunny.17 mph94%29.80 "Hg6 mi
9:20 PM50 °FLight rain. Partly sunny.1 mph88%29.80 "Hg4 mi
8:50 PM48 °FLight rain. Broken clouds.8 mph94%29.80 "HgN/A
8:20 PM54 °FSprinkles. Partly sunny.17 mph77%29.80 "Hg4 mi
7:50 PM55 °FSprinkles. Partly sunny.14 mph67%29.80 "HgN/A
7:20 PM55 °FPartly sunny.17 mph67%29.80 "HgN/A
6:50 PM55 °FLight rain. Partly sunny.14 mph67%29.80 "HgN/A
6:20 PM55 °FLight rain. Partly sunny.17 mph67%29.80 "HgN/A
5:50 PM55 °FPartly sunny.16 mph63%29.80 "HgN/A
5:20 PM57 °FPartly sunny.18 mph59%29.80 "HgN/A
4:50 PM57 °FPartly sunny.20 mph55%29.83 "HgN/A
4:20 PM57 °FPartly sunny.21 mph55%29.83 "HgN/A
3:50 PM59 °FPartly sunny.17 mph51%29.83 "HgN/A
3:20 PM57 °FPartly sunny.15 mph51%29.83 "HgN/A
2:50 PM57 °FPartly sunny.18 mph48%29.83 "HgN/A
2:20 PM59 °FPassing clouds.18 mph48%29.83 "HgN/A
1:50 PM59 °FPassing clouds.17 mph45%29.83 "HgN/A
1:20 PM57 °FPassing clouds.18 mph55%29.86 "HgN/A
12:50 PM55 °FPassing clouds.18 mph55%29.86 "HgN/A
12:20 PM55 °FPassing clouds.16 mph59%29.86 "HgN/A
11:50 AM54 °FPassing clouds.16 mph67%29.86 "HgN/A
11:20 AM54 °FScattered clouds.14 mph67%29.86 "HgN/A
10:50 AM54 °FPassing clouds.15 mph67%29.89 "HgN/A
10:20 AM54 °FPassing clouds.16 mph67%29.89 "HgN/A
9:50 AM54 °FPassing clouds.15 mph63%29.89 "HgN/A
9:20 AM52 °FPassing clouds.13 mph72%29.89 "HgN/A
8:50 AM50 °FPassing clouds.9 mph82%29.89 "HgN/A
8:20 AM50 °FPassing clouds.10 mph76%29.89 "HgN/A
7:50 AM48 °FPassing clouds.10 mph82%29.92 "HgN/A
7:20 AM48 °FPassing clouds.10 mph82%29.92 "HgN/A
6:50 AM46 °FSunny.8 mph82%29.92 "Hg10 mi
6:20 AM46 °FClear.7 mph82%29.92 "Hg10 mi
5:50 AM45 °FClear.6 mph87%29.92 "Hg10 mi
5:20 AM45 °FClear.5 mph87%29.92 "Hg10 mi
4:50 AM45 °FClear.7 mph87%29.92 "Hg10 mi
4:20 AM45 °FClear.8 mph87%29.95 "Hg10 mi
3:50 AM45 °FClear.7 mph87%29.95 "Hg10 mi
3:20 AM46 °FClear.8 mph82%29.95 "Hg10 mi
Weather by CustomWeather, © 2015

See weather overviewHow to use our weather pages